W3BW-5 Weather Reports


Display with metric or nautical units.
time (UTC)temp
F
wind
direction
speed
MPH
gust
MPH
rain 1hr
in
rain 24hr
in
rain mn
in
humidity
%
barometer
mb
20260510220305 72 354 1.0 3.0 36.63 0.00 0.00 78 1005.9
20260510215306 73 60 1.0 3.0 36.63 0.00 0.00 75 1005.4
20260510214307 73 285 1.0 3.0 36.63 0.00 0.00 74 1005.2
20260510213303 74 294 0.0 2.0 36.63 0.00 0.00 75 1005.2
20260510212306 74 0 0.0 0.0 36.63 0.00 0.00 71 1005.2
20260510211303 74 308 0.0 3.0 36.63 0.00 0.00 71 1005.2
20260510210304 74 264 3.0 6.0 36.63 0.00 0.00 70 1005.1
20260510205306 74 260 2.0 4.0 36.63 0.00 0.00 68 1004.9
20260510204303 74 242 6.0 9.0 36.63 0.00 0.00 67 1004.8
20260510203306 74 255 7.0 10.0 36.63 0.00 0.00 67 1004.7
20260510202306 75 281 3.0 10.0 36.63 0.00 0.00 65 1004.8
20260510200305 74 245 6.0 11.0 36.63 0.00 0.00 66 1005.2
20260510195306 74 276 5.0 10.0 36.63 0.00 0.00 66 1005.3
20260510194304 74 257 8.0 13.0 36.63 0.00 0.00 66 1005.4
20260510193309 75 249 7.0 12.0 36.63 0.00 0.00 66 1005.5
20260510192309 74 238 6.0 10.0 36.63 0.00 0.00 66 1005.6
20260510191302 74 252 6.0 14.0 36.63 0.00 0.00 65 1005.7
20260510190306 75 242 6.0 14.0 36.63 0.00 0.00 65 1005.8
20260510185305 74 233 5.0 14.0 36.63 0.00 0.00 66 1005.9
20260510183306 74 271 6.0 12.0 36.63 0.00 0.00 68 1006.1
20260510182306 73 262 7.0 11.0 36.63 0.00 0.00 68 1006.1
20260510181302 73 245 5.0 10.0 36.63 0.00 0.00 71 1006.2
20260510180304 73 246 8.0 15.0 36.63 0.00 0.00 70 1006.2
20260510175305 74 255 10.0 13.0 36.63 0.00 0.00 69 1006.4
20260510173303 72 248 9.0 13.0 36.63 0.00 0.00 70 1006.6
20260510172306 72 269 7.0 10.0 36.63 0.00 0.00 69 1006.4
20260510171302 71 248 8.0 13.0 36.63 0.00 0.00 70 1006.6
20260510170304 72 256 5.0 8.0 36.63 0.00 0.00 73 1006.6
20260510165305 72 274 2.0 4.0 36.63 0.00 0.00 74 1006.9
20260510164304 69 257 4.0 8.0 36.63 0.00 0.00 74 1006.9
20260510163303 71 246 6.0 9.0 36.63 0.00 0.00 75 1007.0
20260510162313 71 249 7.0 10.0 36.63 0.00 0.00 77 1007.1
20260510161301 69 262 8.0 10.0 36.63 0.00 0.00 77 1007.1
20260510160307 69 256 10.0 15.0 36.63 0.00 0.00 77 1007.0
20260510155305 70 250 10.0 14.0 36.63 0.00 0.00 77 1007.1
20260510153305 69 253 9.0 16.0 36.63 0.00 0.00 79 1007.1
20260510152301 69 246 8.0 13.0 36.63 0.00 0.00 84 1007.2
20260510151301 68 253 9.0 12.0 36.63 0.00 0.00 87 1007.3
20260510150305 67 253 6.0 9.0 36.63 0.00 0.00 91 1007.2
20260510145305 66 235 4.0 7.0 36.63 0.00 0.00 93 1007.1
20260510144303 64 255 5.0 7.0 36.63 0.00 0.00 95 1007.2
20260510143303 64 256 5.0 8.0 36.63 0.00 0.00 96 1007.2
20260510142301 64 253 5.0 8.0 36.63 0.00 0.00 96 1007.3
20260510141301 63 257 7.0 9.0 36.63 0.00 0.00 96 1007.5
20260510140307 63 262 6.0 7.0 36.63 0.00 0.00 97 1007.4
20260510135305 62 257 5.0 7.0 36.63 0.00 0.00 97 1007.4
20260510134302 61 260 6.0 9.0 36.63 0.00 0.00 97 1007.5
20260510133308 60 253 5.0 7.0 36.63 0.00 0.00 98 1007.5
20260510132308 59 255 5.0 8.0 36.63 0.00 0.00 98 1007.6
20260510131304 59 224 1.0 3.0 36.63 0.00 0.00 99 1007.8
20260510130303 58 0 0.0 0.0 36.63 0.00 0.00 99 1007.9
20260510125306 58 146 1.0 3.0 36.63 0.00 0.00 99 1007.9
20260510124304 58 30 1.0 3.0 36.63 0.00 0.00 100 1008.0
20260510123304 57 53 2.0 4.0 36.63 0.00 0.00 100 1008.0
20260510122306 56 59 2.0 4.0 36.63 0.00 0.00 100 1007.8
20260510115305 55 55 1.0 3.0 36.63 0.00 0.00 100 1007.6
20260510114300 54 359 2.0 4.0 36.63 0.00 0.00 100 1007.5
20260510113302 54 98 2.0 3.0 36.63 0.00 0.00 100 1007.3
20260510112305 54 68 0.0 2.0 36.63 0.00 0.00 100 1007.2
20260510111301 53 37 1.0 4.0 36.63 0.00 0.00 100 1007.2
20260510110304 52 347 0.0 2.0 36.63 0.00 0.00 100 1007.1
20260510105300 52 314 1.0 3.0 36.63 0.00 0.00 100 1006.8
20260510104301 52 0 0.0 0.0 36.63 0.00 0.00 100 1006.4
20260510103300 51 0 0.0 0.0 36.63 0.00 0.00 100 1006.2
20260510102305 50 0 0.0 0.0 36.63 0.00 0.00 100 1006.2
20260510101302 50 0 0.0 0.0 36.63 0.00 0.00 100 1006.3
20260510100304 51 0 0.0 0.0 36.63 0.00 0.00 100 1006.4
20260510095305 50 0 0.0 0.0 36.63 0.00 0.00 100 1006.4
20260510094309 50 0 0.0 0.0 36.63 0.00 0.00 100 1006.3
20260510093304 50 86 1.0 3.0 36.63 0.00 0.00 100 1006.1
20260510092301 51 295 2.0 4.0 36.63 0.00 0.00 100 1006.2
20260510091301 51 108 2.0 6.0 36.63 0.00 0.00 100 1005.9
20260510090310 50 162 1.0 3.0 36.63 0.00 0.00 100 1006.0
20260510085301 50 0 0.0 0.0 36.63 0.00 0.00 100 1005.6
20260510084302 50 0 0.0 1.0 36.63 0.00 0.00 100 1005.5
20260510083303 50 353 0.0 1.0 36.63 0.00 0.00 100 1005.3
20260510082306 50 321 1.0 3.0 36.63 0.00 0.00 100 1005.2
20260510081302 50 333 1.0 3.0 36.63 0.00 0.00 100 1005.1
20260510080335 51 11 1.0 2.0 36.63 0.00 0.00 100 1005.1
20260510080304 51 11 1.0 2.0 36.63 0.00 0.00 100 1005.1
20260510075301 51 326 3.0 4.0 36.63 0.00 0.00 100 1005.0
20260510074302 52 323 2.0 3.0 36.63 0.00 0.00 100 1004.9
20260510073303 52 329 0.0 3.0 36.63 0.00 0.00 100 1004.8
20260510072301 52 0 0.0 0.0 36.63 0.00 0.00 100 1004.8
20260510071301 53 0 0.0 0.0 36.63 0.00 0.00 100 1004.7
20260510070306 53 0 0.0 0.0 36.63 0.00 0.00 100 1004.7
20260510065301 53 60 1.0 2.0 36.63 0.00 0.00 100 1004.6
20260510064305 53 34 1.0 3.0 36.63 0.00 0.00 100 1004.5
20260510063303 53 69 1.0 2.0 36.63 0.00 0.00 100 1004.5
20260510062308 52 4 2.0 4.0 36.63 0.00 0.00 100 1004.7
20260510061303 53 0 0.0 0.0 36.63 0.00 0.00 100 1004.9
20260510060306 53 0 0.0 0.0 36.63 0.00 0.00 100 1004.8
20260510055301 53 14 1.0 4.0 36.63 0.00 0.00 100 1004.8
20260510054306 53 35 1.0 3.0 36.63 0.00 0.00 100 1004.8
20260510053303 53 1 0.0 2.0 36.63 0.00 0.00 100 1004.8
20260510052308 53 23 2.0 3.0 36.63 0.00 0.00 100 1004.8
20260510051301 53 34 0.0 3.0 36.63 0.00 0.00 100 1004.9
20260510050306 53 0 0.0 0.0 36.63 0.00 0.00 100 1005.0
20260510045306 53 8 1.0 3.0 36.63 0.00 0.00 100 1005.1
20260510044306 53 25 1.0 2.0 36.63 0.00 0.00 100 1005.0
20260510043303 54 4 1.0 4.0 36.63 0.00 0.00 100 1005.0
20260510042309 54 23 2.0 4.0 36.63 0.00 0.00 100 1004.9
20260510041304 54 13 1.0 2.0 36.63 0.00 0.00 100 1005.0
20260510040304 54 14 2.0 3.0 36.63 0.00 0.00 100 1004.9
20260510035306 55 14 2.0 4.0 36.63 0.00 0.00 100 1004.9
20260510034305 55 8 2.0 4.0 36.63 0.00 0.00 100 1004.8
20260510033305 55 350 3.0 4.0 36.63 0.00 0.00 100 1004.7
20260510032307 55 46 1.0 2.0 36.63 0.00 0.00 100 1004.6
20260510031301 55 356 2.0 3.0 36.63 0.00 0.00 100 1004.6
20260510030313 55 30 2.0 3.0 36.63 0.00 0.00 100 1004.5
20260510025306 56 25 1.0 2.0 36.63 0.00 0.00 100 1004.5
20260510024305 56 0 0.0 0.0 36.63 0.00 0.00 100 1004.4
20260510023305 56 35 0.0 2.0 36.63 0.00 0.00 100 1004.4
20260510022306 56 7 0.0 2.0 36.63 0.00 0.00 100 1004.4
20260510021301 57 0 0.0 0.0 36.63 0.00 0.00 100 1004.3
20260510015306 57 73 1.0 4.0 36.63 0.00 0.00 99 1004.2
20260510014301 57 48 1.0 3.0 36.63 0.00 0.00 99 1004.2
20260510013303 57 104 0.0 1.0 36.63 0.00 0.00 99 1004.2
20260510012308 58 70 0.0 2.0 36.63 0.00 0.00 99 1004.2
20260510011302 58 30 3.0 4.0 36.63 0.00 0.00 98 1004.0
20260510010304 58 34 3.0 5.0 36.63 0.00 0.00 98 1003.9
20260510005306 58 73 3.0 6.0 36.63 0.00 0.00 98 1003.8
20260510004305 58 62 3.0 6.0 36.63 0.00 0.00 98 1003.9
20260510003304 59 75 3.0 6.0 36.63 0.00 0.00 97 1003.7
20260510002306 59 90 3.0 7.0 36.63 0.00 0.00 97 1003.7
20260510001303 59 77 4.0 7.0 36.63 0.00 0.00 97 1003.6
20260510000318 60 77 3.0 7.0 36.63 0.00 0.00 97 1003.6
20260509235306 60 6 4.0 9.0 36.63 0.00 0.00 96 1003.5
20260509234303 60 91 4.0 7.0 36.63 0.00 0.00 96 1003.5
20260509233304 61 65 4.0 7.0 36.63 0.00 0.00 96 1003.4
20260509232312 61 28 5.0 11.0 36.63 0.00 0.00 95 1003.2
20260509231302 61 68 7.0 12.0 36.63 0.00 0.00 95 1003.1
20260509230304 61 37 6.0 9.0 36.63 0.00 0.00 95 1003.1
20260509225305 62 59 9.0 13.0 36.63 0.00 0.00 95 1003.1
20260509224303 62 31 4.0 8.0 36.63 0.00 0.00 94 1003.1
20260509223303 63 66 5.0 10.0 36.63 0.00 0.00 93 1003.0
20260509222310 63 80 5.0 11.0 36.63 0.00 0.00 92 1002.9
20260509221304 64 100 5.0 9.0 36.63 0.00 0.00 92 1002.9